Japanese version Home page |
Updated on September 3, 2011 |
Profile
|
Orbital ElementsEpoch 2002 July 25.0 TT = JDT 2452480.5 T 2002 July 25.61893 TT MPC q 4.5949872 (2000.0) P Q n 0.09576196 Peri. 235.57304 +0.96950264 -0.22665878 a 4.7315927 Node 137.31333 +0.24444552 +0.92167460 e 0.0288709 Incl. 7.90313 -0.01763579 +0.31486779 P 10.29
|
Finding Charts
|
Magnitudes Graphm1 = 9.0 + 5 log d + 10.0 log r
|
The orbital elements are published on M.P.E.C. 2003-W74.
|